| time (UTC) | temp F | wind direction | speed MPH | gust MPH | rain 1hr in | rain 24hr in | rain mn in | humidity % | barometer mb |
| 20260902042109 | 52 | 184 | 0.0 | 0.0 | 0.01 | 0.03 | 0.03 | 95 | 1019.7 |
| 20260902041109 | 52 | 184 | 0.0 | 0.0 | 0.01 | 0.03 | 0.03 | 95 | 1019.5 |
| 20260902035109 | 52 | 184 | 0.0 | 0.0 | 0.01 | 0.03 | 0.03 | 95 | 1019.8 |
| 20260902025108 | 52 | 184 | 0.0 | 0.0 | 0.02 | 0.02 | 0.02 | 94 | 1019.9 |
| 20260902024109 | 52 | 184 | 0.0 | 0.0 | 0.02 | 0.02 | 0.02 | 94 | 1020.0 |
| 20260902022108 | 52 | 184 | 0.0 | 0.0 | 0.02 | 0.02 | 0.02 | 94 | 1020.0 |
| 20260902021108 | 51 | 184 | 0.0 | 0.0 | 0.01 | 0.01 | 0.01 | 94 | 1020.2 |
| 20260902015109 | 51 | 0 | 0.0 | 0.0 | 0.00 | 0.00 | 0.00 | 94 | 1020.1 |
| 20260902013110 | 51 | 184 | 0.0 | 0.0 | 0.00 | 0.00 | 0.00 | 94 | 1020.1 |
| 20260902011110 | 51 | 184 | 0.0 | 0.0 | 0.00 | 0.00 | 0.00 | 94 | 1020.1 |
| 20260902010111 | 52 | 184 | 0.0 | 0.0 | 0.00 | 0.00 | 0.00 | 94 | 1019.9 |
| 20260902005111 | 52 | 184 | 0.0 | 0.0 | 0.00 | 0.00 | 0.00 | 94 | 1020.1 |
| 20260902004112 | 52 | 184 | 0.0 | 0.0 | 0.00 | 0.00 | 0.00 | 94 | 1020.1 |
| 20260902002111 | 51 | 184 | 0.0 | 0.0 | 0.00 | 0.00 | 0.00 | 94 | 1019.8 |
| 20260902001111 | 51 | 184 | 0.0 | 0.0 | 0.00 | 0.00 | 0.00 | 94 | 1019.9 |
| 20260901223111 | 51 | 192 | 0.0 | 0.0 | 0.00 | 0.00 | 0.00 | 92 | 1020.0 |
| 20260901221110 | 51 | 192 | 0.0 | 0.0 | 0.00 | 0.00 | 0.00 | 92 | 1019.9 |
| 20260901215110 | 51 | 192 | 0.0 | 0.0 | 0.00 | 0.00 | 0.00 | 92 | 1020.0 |
| 20260901214110 | 51 | 192 | 0.0 | 0.0 | 0.00 | 0.00 | 0.00 | 91 | 1020.0 |
| 20260901213110 | 51 | 192 | 0.0 | 0.0 | 0.00 | 0.00 | 0.00 | 91 | 1019.9 |
| 20260901212110 | 51 | 192 | 0.0 | 0.0 | 0.00 | 0.00 | 0.00 | 91 | 1019.7 |
| 20260901205110 | 52 | 192 | 0.0 | 0.0 | 0.00 | 0.00 | 0.00 | 90 | 1019.6 |
| 20260901204110 | 52 | 192 | 0.0 | 0.0 | 0.00 | 0.00 | 0.00 | 89 | 1019.6 |
| 20260901203110 | 53 | 192 | 0.0 | 0.0 | 0.00 | 0.00 | 0.00 | 89 | 1019.8 |
| 20260901202109 | 53 | 192 | 0.0 | 0.0 | 0.00 | 0.00 | 0.00 | 88 | 1019.7 |
| 20260901195109 | 54 | 192 | 0.0 | 0.0 | 0.00 | 0.00 | 0.00 | 87 | 1019.5 |
| 20260901194109 | 54 | 192 | 0.0 | 0.0 | 0.00 | 0.00 | 0.00 | 87 | 1019.5 |
| 20260901193109 | 55 | 192 | 0.0 | 0.0 | 0.00 | 0.00 | 0.00 | 86 | 1019.5 |
| 20260901191109 | 56 | 192 | 0.0 | 0.0 | 0.00 | 0.00 | 0.00 | 85 | 1019.4 |
| 20260901190109 | 56 | 192 | 0.0 | 0.0 | 0.00 | 0.00 | 0.00 | 84 | 1019.4 |
| 20260901185109 | 57 | 192 | 0.0 | 0.0 | 0.00 | 0.00 | 0.00 | 84 | 1019.5 |
| 20260901184109 | 58 | 192 | 0.0 | 0.0 | 0.00 | 0.00 | 0.00 | 83 | 1019.4 |
| 20260901183109 | 58 | 192 | 0.0 | 0.0 | 0.00 | 0.00 | 0.00 | 82 | 1019.3 |
| 20260901171109 | 62 | 192 | 0.0 | 0.0 | 0.00 | 0.00 | 0.00 | 74 | 1018.9 |
| 20260901165108 | 63 | 192 | 0.0 | 0.0 | 0.00 | 0.00 | 0.00 | 72 | 1018.7 |
| 20260901160111 | 63 | 192 | 0.0 | 0.0 | 0.00 | 0.00 | 0.00 | 73 | 1018.6 |
| 20260901153111 | 64 | 192 | 0.0 | 4.0 | 0.00 | 0.00 | 0.00 | 73 | 1018.6 |
| 20260901151112 | 64 | 295 | 1.0 | 10.0 | 0.00 | 0.00 | 0.00 | 72 | 1018.7 |
| 20260901150111 | 64 | 314 | 1.0 | 7.0 | 0.00 | 0.00 | 0.00 | 70 | 1018.6 |
| 20260901142111 | 65 | 5 | 0.0 | 1.0 | 0.00 | 0.00 | 0.00 | 70 | 1019.0 |
| 20260901141111 | 65 | 345 | 1.0 | 7.0 | 0.00 | 0.00 | 0.00 | 70 | 1019.1 |
| 20260901140111 | 64 | 11 | 1.0 | 6.0 | 0.00 | 0.00 | 0.00 | 70 | 1019.0 |
| 20260901135111 | 65 | 346 | 0.0 | 0.0 | 0.00 | 0.00 | 0.00 | 70 | 1019.3 |
| 20260901134111 | 65 | 346 | 0.0 | 1.0 | 0.00 | 0.00 | 0.00 | 70 | 1019.3 |
| 20260901132111 | 65 | 294 | 1.0 | 8.0 | 0.00 | 0.00 | 0.00 | 67 | 1019.2 |
| 20260901131110 | 65 | 290 | 0.0 | 0.0 | 0.00 | 0.00 | 0.00 | 71 | 1019.3 |
| 20260901125110 | 65 | 342 | 1.0 | 6.0 | 0.00 | 0.00 | 0.00 | 67 | 1019.3 |
| 20260901121110 | 63 | 360 | 1.0 | 6.0 | 0.00 | 0.00 | 0.00 | 74 | 1019.3 |
| 20260901115110 | 63 | 317 | 1.0 | 7.0 | 0.00 | 0.00 | 0.00 | 72 | 1019.4 |
| 20260901114110 | 64 | 346 | 1.0 | 7.0 | 0.00 | 0.00 | 0.00 | 71 | 1019.3 |
| 20260901111110 | 62 | 302 | 1.0 | 8.0 | 0.00 | 0.00 | 0.00 | 77 | 1019.1 |
| 20260901103109 | 62 | 26 | 0.0 | 1.0 | 0.00 | 0.00 | 0.00 | 78 | 1018.9 |
| 20260901102109 | 62 | 26 | 1.0 | 4.0 | 0.00 | 0.00 | 0.00 | 80 | 1019.0 |
| 20260901101109 | 61 | 304 | 1.0 | 7.0 | 0.00 | 0.00 | 0.00 | 80 | 1018.7 |
| 20260901100109 | 61 | 360 | 2.0 | 8.0 | 0.00 | 0.00 | 0.00 | 79 | 1018.7 |
| 20260901093109 | 61 | 290 | 2.0 | 8.0 | 0.00 | 0.00 | 0.00 | 81 | 1018.5 |
| 20260901092109 | 60 | 293 | 0.0 | 2.0 | 0.00 | 0.00 | 0.00 | 82 | 1018.5 |
| 20260901090109 | 59 | 306 | 0.0 | 5.0 | 0.00 | 0.00 | 0.00 | 84 | 1018.4 |
| 20260901085109 | 59 | 295 | 1.0 | 14.0 | 0.00 | 0.00 | 0.00 | 83 | 1018.4 |
| 20260901084109 | 59 | 317 | 3.0 | 11.0 | 0.00 | 0.00 | 0.00 | 83 | 1018.2 |
| 20260901083109 | 59 | 322 | 0.0 | 5.0 | 0.00 | 0.00 | 0.00 | 84 | 1018.2 |
| 20260901081109 | 58 | 17 | 1.0 | 7.0 | 0.00 | 0.00 | 0.00 | 84 | 1018.3 |
| 20260901075109 | 58 | 9 | 1.0 | 6.0 | 0.00 | 0.10 | 0.00 | 85 | 1017.9 |
| 20260901074108 | 58 | 319 | 0.0 | 0.0 | 0.00 | 0.10 | 0.00 | 86 | 1017.9 |
| 20260901073108 | 58 | 319 | 0.0 | 1.0 | 0.00 | 0.10 | 0.00 | 86 | 1017.7 |
| 20260901072108 | 57 | 315 | 0.0 | 2.0 | 0.00 | 0.10 | 0.00 | 87 | 1017.7 |
| 20260901071108 | 57 | 315 | 1.0 | 8.0 | 0.00 | 0.10 | 0.00 | 87 | 1017.8 |
| 20260901070111 | 57 | 300 | 1.0 | 8.0 | 0.00 | 0.10 | 0.00 | 85 | 1017.8 |
| 20260901065111 | 57 | 307 | 0.0 | 1.0 | 0.00 | 0.41 | 0.00 | 85 | 1017.7 |
| 20260901064111 | 57 | 316 | 1.0 | 7.0 | 0.00 | 0.41 | 0.00 | 86 | 1017.5 |
| 20260901062111 | 56 | 321 | 0.0 | 2.0 | 0.00 | 0.41 | 0.00 | 89 | 1017.5 |
| 20260901061111 | 55 | 322 | 0.0 | 0.0 | 0.00 | 0.41 | 0.00 | 90 | 1017.3 |
| 20260901060111 | 55 | 322 | 0.0 | 0.0 | 0.00 | 0.41 | 0.00 | 90 | 1017.4 |
| 20260901055111 | 54 | 322 | 0.0 | 5.0 | 0.00 | 0.41 | 0.00 | 90 | 1017.3 |
| 20260901054111 | 54 | 325 | 0.0 | 1.0 | 0.00 | 0.41 | 0.00 | 91 | 1017.4 |
| 20260901052111 | 53 | 325 | 0.0 | 1.0 | 0.00 | 0.41 | 0.00 | 91 | 1017.2 |
| 20260901050110 | 53 | 325 | 0.0 | 5.0 | 0.00 | 0.41 | 0.00 | 91 | 1017.1 |
| 20260901045110 | 52 | 325 | 0.0 | 2.0 | 0.00 | 0.41 | 0.00 | 91 | 1017.0 |
| 20260901044110 | 52 | 325 | 0.0 | 1.0 | 0.00 | 0.41 | 0.00 | 92 | 1017.0 |